Time,TemperatureF,DewpointF,PressureIn,WindDirection,WindDirectionDegrees,WindSpeedMPH,WindSpeedGustMPH,Humidity,HourlyPrecipIn,Conditions,Clouds,dailyrainin,SoftwareType,DateUTC
2014-03-04 00:01:00,46.6,46.3,30.13,WNW,292,2.3,2.3,99,0.00,CLR,,0.00,WeatherDisplay:10.37,2014-03-04 05:01:00,
2014-03-04 00:02:00,46.6,46.3,30.13,WNW,292,2.3,2.3,99,0.00,CLR,,0.00,WeatherDisplay:10.37,2014-03-04 05:02:00,
2014-03-04 00:03:00,46.6,46.3,30.13,WNW,292,2.7,2.7,99,0.00,CLR,,0.00,WeatherDisplay:10.37,2014-03-04 05:03:00,
2014-03-04 00:05:00,46.6,46.3,30.13,WNW,292,2.3,2.3,99,0.00,CLR,,0.00,WeatherDisplay:10.37,2014-03-04 05:05:00,
2014-03-04 00:06:00,46.6,46.3,30.13,WNW,292,2.3,2.3,99,0.00,CLR,,0.00,WeatherDisplay:10.37,2014-03-04 05:06:00,
2014-03-04 00:11:00,46.6,46.3,30.13,WNW,292,2.3,2.3,99,0.00,CLR,,0.00,WeatherDisplay:10.37,2014-03-04 05:11:00,
2014-03-04 00:16:00,46.6,46.3,30.13,WNW,292,2.3,2.3,99,0.00,CLR,,0.00,WeatherDisplay:10.37,2014-03-04 05:16:00,
2014-03-04 00:21:00,46.6,46.3,30.13,WNW,292,2.3,2.3,99,0.00,CLR,,0.00,WeatherDisplay:10.37,2014-03-04 05:21:00,
2014-03-04 00:26:00,46.6,46.3,30.13,WNW,292,0.0,0.0,99,0.00,CLR,,0.00,WeatherDisplay:10.37,2014-03-04 05:26:00,
2014-03-04 00:31:00,46.6,46.3,30.13,WNW,292,0.0,0.0,99,0.00,CLR,,0.00,WeatherDisplay:10.37,2014-03-04 05:31:00,
2014-03-04 00:36:00,46.6,46.3,30.13,WNW,292,1.1,1.4,99,0.00,CLR,,0.00,WeatherDisplay:10.37,2014-03-04 05:36:00,
2014-03-04 00:41:00,46.6,46.3,30.13,WNW,292,1.1,1.1,99,0.00,CLR,,0.00,WeatherDisplay:10.37,2014-03-04 05:41:00,
2014-03-04 00:46:00,46.6,46.3,30.13,WNW,292,0.0,0.0,99,0.00,CLR,,0.00,WeatherDisplay:10.37,2014-03-04 05:46:00,
2014-03-04 00:51:00,46.6,46.3,30.13,WNW,292,0.0,0.0,99,0.00,CLR,,0.00,WeatherDisplay:10.37,2014-03-04 05:51:00,
2014-03-04 00:56:00,46.6,46.3,30.13,WNW,292,0.0,0.0,99,0.00,CLR,,0.00,WeatherDisplay:10.37,2014-03-04 05:56:00,
2014-03-04 01:01:00,46.6,46.3,30.13,WNW,292,0.0,0.0,99,0.00,CLR,,0.00,WeatherDisplay:10.37,2014-03-04 06:01:00,
2014-03-04 01:06:00,46.6,46.3,30.13,WNW,292,1.7,1.7,99,0.00,CLR,,0.00,WeatherDisplay:10.37,2014-03-04 06:06:00,
2014-03-04 01:11:00,46.6,46.3,30.13,WNW,292,2.3,2.3,99,0.00,CLR,,0.00,WeatherDisplay:10.37,2014-03-04 06:11:00,
2014-03-04 01:16:00,46.6,46.3,30.13,WNW,292,0.0,0.0,99,0.00,CLR,,0.00,WeatherDisplay:10.37,2014-03-04 06:16:00,
2014-03-04 01:21:00,46.6,46.3,30.13,WNW,292,2.3,2.3,99,0.00,CLR,,0.00,WeatherDisplay:10.37,2014-03-04 06:21:00,
2014-03-04 01:26:00,46.6,46.3,30.13,WNW,292,3.5,3.5,99,0.00,CLR,,0.00,WeatherDisplay:10.37,2014-03-04 06:26:00,
2014-03-04 01:31:00,46.6,46.3,30.13,WNW,292,3.5,3.5,99,0.00,CLR,,0.00,WeatherDisplay:10.37,2014-03-04 06:31:00,
2014-03-04 01:36:00,46.6,46.3,30.13,WNW,292,3.5,3.5,99,0.00,CLR,,0.00,WeatherDisplay:10.37,2014-03-04 06:36:00,
2014-03-04 01:41:00,46.6,46.3,30.14,WNW,292,2.3,2.3,99,0.00,CLR,,0.00,WeatherDisplay:10.37,2014-03-04 06:41:00,
2014-03-04 01:46:00,46.6,46.3,30.14,WNW,292,3.5,3.5,99,0.00,CLR,,0.00,WeatherDisplay:10.37,2014-03-04 06:46:00,
2014-03-04 01:51:00,46.6,46.3,30.13,WNW,292,3.5,3.5,99,0.00,CLR,,0.00,WeatherDisplay:10.37,2014-03-04 06:51:00,
2014-03-04 01:56:00,46.6,46.3,30.13,WNW,292,0.0,0.0,99,0.00,CLR,,0.00,WeatherDisplay:10.37,2014-03-04 06:56:00,
2014-03-04 02:01:00,46.6,46.3,30.13,WNW,292,2.3,2.3,99,0.00,CLR,,0.00,WeatherDisplay:10.37,2014-03-04 07:01:00,
2014-03-04 02:06:00,46.6,46.3,30.13,WNW,292,0.0,0.0,99,0.00,CLR,,0.00,WeatherDisplay:10.37,2014-03-04 07:06:00,
2014-03-04 02:11:00,46.6,46.3,30.13,WNW,292,2.3,2.3,99,0.00,CLR,,0.00,WeatherDisplay:10.37,2014-03-04 07:11:00,
2014-03-04 02:16:00,46.6,46.3,30.14,WNW,292,1.7,1.7,99,0.00,CLR,,0.00,WeatherDisplay:10.37,2014-03-04 07:16:00,
2014-03-04 02:21:00,46.6,46.3,30.14,WNW,292,1.1,1.1,99,0.00,CLR,,0.00,WeatherDisplay:10.37,2014-03-04 07:21:00,
2014-03-04 02:26:00,46.6,46.3,30.13,WNW,292,2.3,2.3,99,0.00,CLR,,0.00,WeatherDisplay:10.37,2014-03-04 07:26:00,
2014-03-04 02:31:00,46.6,46.3,30.13,WNW,292,0.0,0.0,99,0.00,CLR,,0.00,WeatherDisplay:10.37,2014-03-04 07:31:00,
2014-03-04 02:36:00,46.6,46.3,30.13,WNW,292,0.0,0.0,99,0.00,CLR,,0.00,WeatherDisplay:10.37,2014-03-04 07:36:00,
2014-03-04 02:41:00,46.6,46.3,30.13,WNW,292,2.3,2.3,99,0.00,CLR,,0.00,WeatherDisplay:10.37,2014-03-04 07:41:00,
2014-03-04 02:46:00,46.6,46.3,30.13,WNW,292,2.3,2.3,99,0.00,CLR,,0.00,WeatherDisplay:10.37,2014-03-04 07:46:00,
2014-03-04 02:51:00,46.6,46.3,30.13,WNW,292,3.5,3.5,99,0.00,CLR,,0.00,WeatherDisplay:10.37,2014-03-04 07:51:00,
2014-03-04 02:56:00,46.6,46.3,30.13,WNW,292,3.5,3.5,99,0.00,CLR,,0.00,WeatherDisplay:10.37,2014-03-04 07:56:00,
2014-03-04 03:01:00,46.6,46.3,30.12,WNW,292,2.7,2.7,99,0.00,CLR,,0.00,WeatherDisplay:10.37,2014-03-04 08:01:00,
2014-03-04 03:06:00,46.6,46.3,30.12,WNW,292,2.3,2.3,99,0.00,CLR,,0.00,WeatherDisplay:10.37,2014-03-04 08:06:00,
2014-03-04 03:11:00,46.6,46.3,30.12,WNW,292,3.2,3.2,99,0.00,CLR,,0.00,WeatherDisplay:10.37,2014-03-04 08:11:00,
2014-03-04 03:16:00,46.6,46.3,30.11,WNW,292,3.5,3.5,99,0.00,CLR,,0.00,WeatherDisplay:10.37,2014-03-04 08:16:00,
2014-03-04 03:21:00,46.6,46.3,30.11,WNW,292,2.7,2.7,99,0.00,CLR,,0.00,WeatherDisplay:10.37,2014-03-04 08:21:00,
2014-03-04 03:26:00,46.6,46.3,30.10,WNW,292,2.7,2.7,99,0.00,CLR,,0.00,WeatherDisplay:10.37,2014-03-04 08:26:00,
2014-03-04 03:31:00,46.6,46.3,30.10,WNW,292,3.5,3.5,99,0.00,CLR,,0.00,WeatherDisplay:10.37,2014-03-04 08:31:00,
2014-03-04 03:36:00,46.6,46.3,30.10,WNW,292,4.6,4.6,99,0.00,CLR,,0.00,WeatherDisplay:10.37,2014-03-04 08:36:00,
2014-03-04 03:41:00,46.6,46.3,30.10,WNW,292,4.6,4.6,99,0.00,CLR,,0.00,WeatherDisplay:10.37,2014-03-04 08:41:00,
2014-03-04 03:46:00,46.6,46.3,30.10,WNW,292,2.7,2.7,99,0.00,CLR,,0.00,WeatherDisplay:10.37,2014-03-04 08:46:00,
2014-03-04 03:51:00,46.6,46.3,30.11,WNW,292,2.3,2.3,99,0.00,CLR,,0.00,WeatherDisplay:10.37,2014-03-04 08:51:00,
2014-03-04 03:56:00,46.6,46.3,30.11,WNW,292,3.5,3.5,99,0.00,CLR,,0.00,WeatherDisplay:10.37,2014-03-04 08:56:00,
2014-03-04 04:01:00,46.6,46.3,30.10,WNW,292,4.6,4.6,99,0.00,CLR,,0.00,WeatherDisplay:10.37,2014-03-04 09:01:00,
2014-03-04 04:06:00,46.6,46.3,30.10,WNW,292,5.8,5.8,99,0.00,CLR,,0.00,WeatherDisplay:10.37,2014-03-04 09:06:00,
2014-03-04 04:11:00,46.6,46.3,30.10,WNW,292,4.6,4.7,99,0.00,CLR,,0.00,WeatherDisplay:10.37,2014-03-04 09:11:00,
2014-03-04 04:16:00,46.6,46.3,30.10,WNW,292,3.5,3.5,99,0.00,CLR,,0.00,WeatherDisplay:10.37,2014-03-04 09:16:00,
2014-03-04 04:21:00,46.6,46.3,30.10,WNW,292,5.8,5.8,99,0.00,CLR,,0.00,WeatherDisplay:10.37,2014-03-04 09:21:00,
2014-03-04 04:26:00,46.6,46.3,30.11,NE,45,7.3,7.3,99,0.00,CLR,,0.00,WeatherDisplay:10.37,2014-03-04 09:26:00,
2014-03-04 04:31:00,46.6,46.3,30.11,ENE,68,5.8,5.8,99,0.00,CLR,,0.00,WeatherDisplay:10.37,2014-03-04 09:31:00,
2014-03-04 04:36:00,46.6,46.3,30.11,ENE,68,5.8,5.8,99,0.00,CLR,,0.00,WeatherDisplay:10.37,2014-03-04 09:36:00,
2014-03-04 04:41:00,46.6,46.3,30.11,ENE,68,4.6,4.6,99,0.00,CLR,,0.00,WeatherDisplay:10.37,2014-03-04 09:41:00,
2014-03-04 04:46:00,46.6,46.3,30.11,ENE,68,6.9,6.9,99,0.00,CLR,,0.00,WeatherDisplay:10.37,2014-03-04 09:46:00,
2014-03-04 04:51:00,46.6,46.3,30.11,ENE,68,5.8,5.8,99,0.00,CLR,,0.00,WeatherDisplay:10.37,2014-03-04 09:51:00,
2014-03-04 04:56:00,46.6,46.3,30.11,ENE,68,4.6,4.6,99,0.00,CLR,,0.00,WeatherDisplay:10.37,2014-03-04 09:56:00,
2014-03-04 05:01:00,46.6,46.3,30.11,ENE,68,5.8,5.8,99,0.00,CLR,,0.00,WeatherDisplay:10.37,2014-03-04 10:01:00,
2014-03-04 05:06:00,46.6,46.3,30.11,ENE,68,4.7,4.7,99,0.00,CLR,,0.00,WeatherDisplay:10.37,2014-03-04 10:06:00,
2014-03-04 05:11:00,46.6,46.3,30.11,ENE,68,4.2,4.2,99,0.00,CLR,,0.00,WeatherDisplay:10.37,2014-03-04 10:11:00,
2014-03-04 05:16:00,46.6,46.3,30.09,ENE,68,3.5,3.5,99,0.00,CLR,,0.00,WeatherDisplay:10.37,2014-03-04 10:16:00,
2014-03-04 05:21:00,46.6,46.3,30.09,ENE,68,4.6,4.6,99,0.00,CLR,,0.00,WeatherDisplay:10.37,2014-03-04 10:21:00,
2014-03-04 05:26:00,46.6,46.3,30.10,ENE,68,3.5,3.5,99,0.00,CLR,,0.00,WeatherDisplay:10.37,2014-03-04 10:26:00,
2014-03-04 05:31:00,46.6,46.3,30.10,ENE,68,3.5,3.5,99,0.00,CLR,,0.00,WeatherDisplay:10.37,2014-03-04 10:31:00,
2014-03-04 05:36:00,46.6,46.3,30.11,ENE,68,3.5,3.5,99,0.00,CLR,,0.00,WeatherDisplay:10.37,2014-03-04 10:36:00,
2014-03-04 05:41:00,46.6,46.3,30.11,ENE,68,4.6,4.6,99,0.00,CLR,,0.00,WeatherDisplay:10.37,2014-03-04 10:41:00,
2014-03-04 05:46:00,46.6,46.3,30.11,ENE,68,4.6,4.6,99,0.00,CLR,,0.00,WeatherDisplay:10.37,2014-03-04 10:46:00,
2014-03-04 05:51:00,46.6,46.3,30.12,ENE,68,3.7,3.7,99,0.00,CLR,,0.00,WeatherDisplay:10.37,2014-03-04 10:51:00,
2014-03-04 05:56:00,46.6,46.3,30.12,ENE,68,3.5,3.5,99,0.00,CLR,,0.00,WeatherDisplay:10.37,2014-03-04 10:56:00,
2014-03-04 06:01:00,46.6,46.3,30.12,ENE,68,2.3,2.3,99,0.00,CLR,,0.00,WeatherDisplay:10.37,2014-03-04 11:01:00,
2014-03-04 06:06:00,46.6,46.3,30.12,ENE,68,2.3,2.6,99,0.00,CLR,,0.00,WeatherDisplay:10.37,2014-03-04 11:06:00,
2014-03-04 06:11:00,46.6,46.3,30.12,ENE,68,4.6,4.6,99,0.00,CLR,,0.00,WeatherDisplay:10.37,2014-03-04 11:11:00,
2014-03-04 06:16:00,46.6,46.3,30.12,ENE,68,4.6,4.6,99,0.00,CLR,,0.00,WeatherDisplay:10.37,2014-03-04 11:16:00,
2014-03-04 06:21:00,46.6,46.3,30.12,ENE,68,3.7,3.7,99,0.00,CLR,,0.00,WeatherDisplay:10.37,2014-03-04 11:21:00,
2014-03-04 06:26:00,46.6,46.3,30.13,ENE,68,3.7,3.7,99,0.00,CLR,,0.00,WeatherDisplay:10.37,2014-03-04 11:26:00,
2014-03-04 06:31:00,46.6,46.3,30.13,ENE,68,2.3,2.3,99,0.00,CLR,,0.00,WeatherDisplay:10.37,2014-03-04 11:31:00,
2014-03-04 06:36:00,46.6,46.3,30.13,ENE,68,1.1,1.1,99,0.00,CLR,,0.00,WeatherDisplay:10.37,2014-03-04 11:36:00,
2014-03-04 06:41:00,46.6,46.3,30.13,ENE,68,0.0,0.0,99,0.00,CLR,,0.00,WeatherDisplay:10.37,2014-03-04 11:41:00,
2014-03-04 06:46:00,46.6,46.3,30.13,ENE,68,2.7,2.7,99,0.00,CLR,,0.00,WeatherDisplay:10.37,2014-03-04 11:46:00,
2014-03-04 06:51:00,46.6,46.3,30.13,ENE,68,0.0,0.0,99,0.00,CLR,,0.00,WeatherDisplay:10.37,2014-03-04 11:51:00,
2014-03-04 06:56:00,46.6,46.3,30.13,ENE,68,0.0,0.0,99,0.00,CLR,,0.00,WeatherDisplay:10.37,2014-03-04 11:56:00,
2014-03-04 07:01:00,46.6,46.3,30.13,ENE,68,2.3,2.3,99,0.00,CLR,,0.00,WeatherDisplay:10.37,2014-03-04 12:01:00,
2014-03-04 07:06:00,46.6,46.3,30.13,ENE,68,1.7,1.7,99,0.00,CLR,,0.00,WeatherDisplay:10.37,2014-03-04 12:06:00,
2014-03-04 07:11:00,46.6,46.3,30.13,ENE,68,0.0,0.0,99,0.00,CLR,,0.00,WeatherDisplay:10.37,2014-03-04 12:11:00,
2014-03-04 07:16:00,46.6,46.3,30.14,ENE,68,0.0,0.0,99,0.00,CLR,,0.00,WeatherDisplay:10.37,2014-03-04 12:16:00,
2014-03-04 07:21:00,46.6,46.3,30.14,ENE,68,0.0,0.0,99,0.00,CLR,,0.00,WeatherDisplay:10.37,2014-03-04 12:21:00,
2014-03-04 07:26:00,46.6,46.3,30.15,ENE,68,0.0,0.0,99,0.00,CLR,,0.00,WeatherDisplay:10.37,2014-03-04 12:26:00,
2014-03-04 07:31:00,46.6,46.3,30.15,ENE,68,0.0,0.0,99,0.00,CLR,,0.00,WeatherDisplay:10.37,2014-03-04 12:31:00,
2014-03-04 07:36:00,46.6,46.3,30.15,ENE,68,1.1,1.3,99,0.00,CLR,,0.00,WeatherDisplay:10.37,2014-03-04 12:36:00,
2014-03-04 07:41:00,46.6,46.3,30.14,ENE,68,2.3,2.3,99,0.00,CLR,,0.00,WeatherDisplay:10.37,2014-03-04 12:41:00,
2014-03-04 07:46:00,46.6,46.3,30.14,ENE,68,3.5,3.5,99,0.00,CLR,,0.00,WeatherDisplay:10.37,2014-03-04 12:46:00,
2014-03-04 07:51:00,46.6,46.3,30.14,ENE,68,3.5,3.5,99,0.00,CLR,,0.00,WeatherDisplay:10.37,2014-03-04 12:51:00,
2014-03-04 07:56:00,46.6,46.3,30.14,ENE,68,4.6,4.6,99,0.00,CLR,,0.00,WeatherDisplay:10.37,2014-03-04 12:56:00,
2014-03-04 08:01:00,46.6,46.3,30.14,ENE,68,4.6,4.6,99,0.00,CLR,,0.00,WeatherDisplay:10.37,2014-03-04 13:01:00,
2014-03-04 08:06:00,46.6,46.3,30.14,ENE,68,3.5,3.5,99,0.00,CLR,,0.00,WeatherDisplay:10.37,2014-03-04 13:06:00,
2014-03-04 08:11:00,46.6,46.3,30.14,ENE,68,2.7,2.7,99,0.00,CLR,,0.00,WeatherDisplay:10.37,2014-03-04 13:11:00,
2014-03-04 08:16:00,46.6,46.3,30.14,ENE,68,4.6,4.6,99,0.00,CLR,,0.00,WeatherDisplay:10.37,2014-03-04 13:16:00,
2014-03-04 08:21:00,46.6,46.3,30.14,ENE,68,4.7,4.7,99,0.00,CLR,,0.00,WeatherDisplay:10.37,2014-03-04 13:21:00,
2014-03-04 08:26:00,46.6,46.3,30.14,ENE,68,3.5,3.5,99,0.00,CLR,,0.00,WeatherDisplay:10.37,2014-03-04 13:26:00,
2014-03-04 08:31:00,46.6,46.3,30.14,ENE,68,4.6,4.6,99,0.00,CLR,,0.00,WeatherDisplay:10.37,2014-03-04 13:31:00,
2014-03-04 08:36:00,46.6,46.3,30.14,ENE,68,4.7,4.7,99,0.00,CLR,,0.00,WeatherDisplay:10.37,2014-03-04 13:36:00,
2014-03-04 08:41:00,46.6,46.3,30.12,ENE,68,3.5,3.5,99,0.00,CLR,,0.00,WeatherDisplay:10.37,2014-03-04 13:41:00,
2014-03-04 08:46:00,46.6,46.3,30.12,ENE,68,4.6,4.6,99,0.00,CLR,,0.00,WeatherDisplay:10.37,2014-03-04 13:46:00,
2014-03-04 08:51:00,46.6,46.3,30.12,ENE,68,3.5,3.5,99,0.00,CLR,,0.00,WeatherDisplay:10.37,2014-03-04 13:51:00,
2014-03-04 08:56:00,46.6,46.3,30.12,ENE,68,3.5,3.5,99,0.00,CLR,,0.00,WeatherDisplay:10.37,2014-03-04 13:56:00,
2014-03-04 09:01:00,46.6,46.3,30.12,ENE,68,2.3,2.3,99,0.00,CLR,,0.00,WeatherDisplay:10.37,2014-03-04 14:01:00,
2014-03-04 09:06:00,46.6,46.3,30.12,ENE,68,3.7,3.7,99,0.00,CLR,,0.00,WeatherDisplay:10.37,2014-03-04 14:06:00,
2014-03-04 09:11:00,46.6,46.3,30.12,ENE,68,3.5,3.5,99,0.00,CLR,,0.00,WeatherDisplay:10.37,2014-03-04 14:11:00,
2014-03-04 09:16:00,46.6,46.3,30.12,ENE,68,2.7,2.7,99,0.00,CLR,,0.00,WeatherDisplay:10.37,2014-03-04 14:16:00,
2014-03-04 09:21:00,46.6,46.3,30.12,ENE,68,2.3,2.3,99,0.00,CLR,,0.00,WeatherDisplay:10.37,2014-03-04 14:21:00,
2014-03-04 09:26:00,46.6,46.3,30.12,ENE,68,2.3,2.3,99,0.00,CLR,,0.00,WeatherDisplay:10.37,2014-03-04 14:26:00,
2014-03-04 09:31:00,46.6,46.3,30.12,ENE,68,2.3,2.3,99,0.00,FEW,,0.00,WeatherDisplay:10.37,2014-03-04 14:31:00,
2014-03-04 09:36:00,46.6,46.3,30.11,ENE,68,1.1,1.1,99,0.00,FEW,,0.00,WeatherDisplay:10.37,2014-03-04 14:36:00,
2014-03-04 09:41:00,46.6,46.3,30.11,ENE,68,2.3,2.3,99,0.00,FEW,,0.00,WeatherDisplay:10.37,2014-03-04 14:41:00,
2014-03-04 09:46:00,46.6,46.3,30.11,ENE,68,3.5,3.5,99,0.00,FEW,,0.00,WeatherDisplay:10.37,2014-03-04 14:46:00,
2014-03-04 09:51:00,46.6,46.3,30.11,ENE,68,2.3,2.3,99,0.00,FEW,,0.00,WeatherDisplay:10.37,2014-03-04 14:51:00,
2014-03-04 09:56:00,46.6,46.3,30.11,ENE,68,2.3,2.3,99,0.00,FEW,,0.00,WeatherDisplay:10.37,2014-03-04 14:56:00,
2014-03-04 10:01:00,46.6,46.3,30.10,ENE,68,3.7,3.7,99,0.00,CLR,,0.00,WeatherDisplay:10.37,2014-03-04 15:01:00,
2014-03-04 10:06:00,46.6,46.3,30.10,ENE,68,2.2,2.2,99,0.00,CLR,,0.00,WeatherDisplay:10.37,2014-03-04 15:06:00,
2014-03-04 10:11:00,46.6,46.3,30.10,ENE,68,2.3,2.3,99,0.00,CLR,,0.00,WeatherDisplay:10.37,2014-03-04 15:11:00,
2014-03-04 10:16:00,46.6,46.3,30.09,ENE,68,2.3,2.5,99,0.00,CLR,,0.00,WeatherDisplay:10.37,2014-03-04 15:16:00,
2014-03-04 10:21:00,46.6,46.3,30.09,ENE,68,5.3,5.3,99,0.00,CLR,,0.00,WeatherDisplay:10.37,2014-03-04 15:21:00,
2014-03-04 10:26:00,46.6,46.3,30.09,ENE,68,4.7,4.7,99,0.00,CLR,,0.00,WeatherDisplay:10.37,2014-03-04 15:26:00,
2014-03-04 10:31:00,46.6,46.3,30.09,East,90,3.5,3.5,99,0.00,CLR,,0.00,WeatherDisplay:10.37,2014-03-04 15:31:00,
2014-03-04 10:36:00,46.6,46.3,30.09,ESE,112,4.6,4.6,99,0.00,CLR,,0.00,WeatherDisplay:10.37,2014-03-04 15:36:00,
2014-03-04 10:41:00,46.6,46.3,30.09,ESE,112,2.7,2.7,99,0.00,CLR,,0.00,WeatherDisplay:10.37,2014-03-04 15:41:00,
2014-03-04 10:46:00,46.6,46.3,30.09,ESE,112,2.7,2.7,99,0.00,CLR,,0.00,WeatherDisplay:10.37,2014-03-04 15:46:00,
2014-03-04 10:51:00,46.6,46.3,30.08,ESE,112,2.3,2.3,99,0.00,CLR,,0.00,WeatherDisplay:10.37,2014-03-04 15:51:00,
2014-03-04 10:56:00,46.6,46.3,30.08,ESE,112,3.5,3.5,99,0.00,CLR,,0.00,WeatherDisplay:10.37,2014-03-04 15:56:00,
2014-03-04 11:01:00,46.6,46.3,30.07,ESE,112,2.3,2.3,99,0.00,CLR,,0.00,WeatherDisplay:10.37,2014-03-04 16:01:00,
2014-03-04 11:06:00,46.6,46.3,30.07,ESE,112,3.5,3.5,99,0.00,CLR,,0.00,WeatherDisplay:10.37,2014-03-04 16:06:00,
2014-03-04 11:11:00,46.6,46.3,30.07,ESE,112,3.5,3.5,99,0.00,CLR,,0.00,WeatherDisplay:10.37,2014-03-04 16:11:00,
2014-03-04 11:16:00,46.6,46.3,30.07,ESE,112,2.3,2.3,99,0.00,CLR,,0.00,WeatherDisplay:10.37,2014-03-04 16:16:00,
2014-03-04 11:21:00,46.6,46.3,30.07,North,360,1.1,1.1,99,0.00,CLR,,0.00,WeatherDisplay:10.37,2014-03-04 16:21:00,
2014-03-04 11:26:00,46.6,46.3,30.08,North,360,2.3,2.3,99,0.00,CLR,,0.00,WeatherDisplay:10.37,2014-03-04 16:26:00,
2014-03-04 11:31:00,46.6,46.3,30.08,WNW,292,3.5,3.5,99,0.00,CLR,,0.00,WeatherDisplay:10.37,2014-03-04 16:31:00,
2014-03-04 11:36:00,46.6,46.3,30.08,WNW,292,2.3,2.3,99,0.00,CLR,,0.00,WeatherDisplay:10.37,2014-03-04 16:36:00,
2014-03-04 11:41:00,46.6,46.3,30.07,WNW,292,2.3,0.0,99,0.00,CLR,,0.00,WeatherDisplay:10.37,2014-03-04 16:41:00,
2014-03-04 11:46:00,46.6,46.3,30.07,WNW,292,3.5,3.5,99,0.00,CLR,,0.00,WeatherDisplay:10.37,2014-03-04 16:46:00,
2014-03-04 11:51:00,46.6,46.3,30.07,WNW,292,3.5,3.5,99,0.00,CLR,,0.00,WeatherDisplay:10.37,2014-03-04 16:51:00,
2014-03-04 11:56:00,46.6,46.3,30.07,NW,315,5.8,5.8,99,0.00,CLR,,0.00,WeatherDisplay:10.37,2014-03-04 16:56:00,
2014-03-04 12:01:00,46.6,46.3,30.07,WSW,248,5.8,5.8,99,0.00,CLR,,0.00,WeatherDisplay:10.37,2014-03-04 17:01:00,
2014-03-04 12:06:00,46.6,46.3,30.07,WSW,248,0.0,0.0,99,0.00,CLR,,0.00,WeatherDisplay:10.37,2014-03-04 17:06:00,
2014-03-04 12:11:00,46.6,46.3,30.07,ENE,68,2.3,2.3,99,0.00,CLR,,0.00,WeatherDisplay:10.37,2014-03-04 17:11:00,
2014-03-04 12:16:00,46.6,46.3,30.06,NNW,338,4.2,4.2,99,0.00,CLR,,0.00,WeatherDisplay:10.37,2014-03-04 17:16:00,
2014-03-04 12:21:00,46.6,46.3,30.06,NNW,338,0.0,0.0,99,0.00,CLR,,0.00,WeatherDisplay:10.37,2014-03-04 17:21:00,
2014-03-04 12:26:00,46.6,46.3,30.05,West,270,3.7,3.7,99,0.00,CLR,,0.00,WeatherDisplay:10.37,2014-03-04 17:26:00,
2014-03-04 12:31:00,46.6,46.3,30.05,West,270,0.0,0.0,99,0.00,CLR,,0.00,WeatherDisplay:10.37,2014-03-04 17:31:00,
2014-03-04 12:36:00,46.6,46.3,30.05,SSE,158,3.5,3.5,99,0.01,RA,,0.01,WeatherDisplay:10.37,2014-03-04 17:36:00,
2014-03-04 12:41:00,46.6,46.3,30.04,ESE,112,2.3,2.3,99,0.01,RA,,0.01,WeatherDisplay:10.37,2014-03-04 17:41:00,
2014-03-04 12:46:00,46.6,46.3,30.04,SE,135,2.3,2.3,99,0.01,CLR,,0.01,WeatherDisplay:10.37,2014-03-04 17:46:00,
2014-03-04 12:51:00,46.6,46.3,30.03,ESE,112,2.7,2.7,99,0.01,CLR,,0.01,WeatherDisplay:10.37,2014-03-04 17:51:00,
2014-03-04 12:56:00,46.6,46.3,30.03,ESE,112,3.5,3.5,99,0.02,RA,,0.02,WeatherDisplay:10.37,2014-03-04 17:56:00,
2014-03-04 13:01:00,46.6,46.3,30.02,ESE,112,3.5,3.5,99,0.02,RA,,0.02,WeatherDisplay:10.37,2014-03-04 18:01:00,
2014-03-04 13:06:00,46.6,46.3,30.02,South,180,2.3,2.3,99,0.02,CLR,,0.02,WeatherDisplay:10.37,2014-03-04 18:06:00,
2014-03-04 13:11:00,46.6,46.3,30.02,SW,225,4.2,4.2,99,0.02,CLR,,0.02,WeatherDisplay:10.37,2014-03-04 18:11:00,
2014-03-04 13:16:00,46.6,46.3,30.02,WSW,248,5.8,5.8,99,0.02,CLR,,0.02,WeatherDisplay:10.37,2014-03-04 18:16:00,
2014-03-04 13:21:00,46.6,46.3,30.02,West,270,5.3,5.3,99,0.02,CLR,,0.02,WeatherDisplay:10.37,2014-03-04 18:21:00,
2014-03-04 13:26:00,46.6,46.3,30.01,ENE,68,3.5,3.5,99,0.02,CLR,,0.02,WeatherDisplay:10.37,2014-03-04 18:26:00,
2014-03-04 13:31:00,46.6,46.3,30.01,SW,225,5.3,5.3,99,0.02,CLR,,0.02,WeatherDisplay:10.37,2014-03-04 18:31:00,
2014-03-04 13:36:00,46.6,46.3,30.01,ESE,112,4.6,4.6,99,0.01,CLR,,0.02,WeatherDisplay:10.37,2014-03-04 18:36:00,
2014-03-04 13:41:00,46.6,46.3,30.00,SSE,158,4.2,4.2,99,0.01,CLR,,0.02,WeatherDisplay:10.37,2014-03-04 18:41:00,
2014-03-04 13:46:00,46.6,46.3,30.00,South,180,1.7,1.7,99,0.01,CLR,,0.02,WeatherDisplay:10.37,2014-03-04 18:46:00,
2014-03-04 13:51:00,46.6,46.3,29.99,SW,225,2.3,2.3,99,0.01,CLR,,0.02,WeatherDisplay:10.37,2014-03-04 18:51:00,
2014-03-04 13:56:00,46.6,46.3,29.99,East,90,2.3,2.3,99,0.00,CLR,,0.02,WeatherDisplay:10.37,2014-03-04 18:56:00,
2014-03-04 14:01:00,46.6,46.3,29.99,ESE,112,2.3,2.3,99,0.00,SCT,,0.02,WeatherDisplay:10.37,2014-03-04 19:01:00,
2014-03-04 14:06:00,46.6,46.3,29.99,SSE,158,3.5,3.5,99,0.00,SCT,,0.02,WeatherDisplay:10.37,2014-03-04 19:06:00,
2014-03-04 14:11:00,46.6,46.3,29.99,ESE,112,3.5,3.5,99,0.00,SCT,,0.02,WeatherDisplay:10.37,2014-03-04 19:11:00,
2014-03-04 14:16:00,46.6,46.3,29.99,ESE,112,3.7,3.7,99,0.00,SCT,,0.02,WeatherDisplay:10.37,2014-03-04 19:16:00,
2014-03-04 14:21:00,46.6,46.3,29.99,ESE,112,2.3,2.3,99,0.00,SCT,,0.02,WeatherDisplay:10.37,2014-03-04 19:21:00,
2014-03-04 14:26:00,46.6,46.3,29.97,SSW,202,3.5,3.5,99,0.00,SCT,,0.02,WeatherDisplay:10.37,2014-03-04 19:26:00,
2014-03-04 14:31:00,46.6,46.3,29.97,SSW,202,2.3,2.3,99,0.00,SCT,,0.02,WeatherDisplay:10.37,2014-03-04 19:31:00,
2014-03-04 14:36:00,46.6,46.3,29.97,SW,225,2.3,2.3,99,0.00,SCT,,0.02,WeatherDisplay:10.37,2014-03-04 19:36:00,
2014-03-04 14:41:00,46.6,46.3,29.97,SE,135,2.3,2.3,99,0.00,SCT,,0.02,WeatherDisplay:10.37,2014-03-04 19:41:00,
2014-03-04 14:46:00,46.6,46.3,29.97,WSW,248,0.0,0.0,99,0.00,SCT,,0.02,WeatherDisplay:10.37,2014-03-04 19:46:00,
2014-03-04 14:51:00,46.6,46.3,29.96,South,180,4.2,4.2,99,0.00,SCT,,0.02,WeatherDisplay:10.37,2014-03-04 19:51:00,
2014-03-04 14:56:00,46.6,46.3,29.96,SW,225,2.3,2.3,99,0.00,SCT,,0.02,WeatherDisplay:10.37,2014-03-04 19:56:00,
2014-03-04 15:01:00,46.6,46.3,29.96,East,90,4.6,4.6,99,0.00,FEW,,0.02,WeatherDisplay:10.37,2014-03-04 20:01:00,
2014-03-04 15:06:00,46.6,46.3,29.96,ESE,112,5.8,5.8,99,0.00,FEW,,0.02,WeatherDisplay:10.37,2014-03-04 20:06:00,
2014-03-04 15:11:00,46.6,46.3,29.96,SSE,158,3.5,3.5,99,0.00,FEW,,0.02,WeatherDisplay:10.37,2014-03-04 20:11:00,
2014-03-04 15:16:00,46.6,46.3,29.96,ESE,112,3.5,3.5,99,0.00,FEW,,0.02,WeatherDisplay:10.37,2014-03-04 20:16:00,
2014-03-04 15:21:00,46.6,46.3,29.96,ESE,112,3.5,3.5,99,0.00,FEW,,0.02,WeatherDisplay:10.37,2014-03-04 20:21:00,
2014-03-04 15:26:00,46.6,46.3,29.95,ESE,112,5.8,5.8,99,0.00,FEW,,0.02,WeatherDisplay:10.37,2014-03-04 20:26:00,
2014-03-04 15:31:00,46.6,46.3,29.95,ESE,112,4.6,4.6,99,0.00,FEW,,0.02,WeatherDisplay:10.37,2014-03-04 20:31:00,
2014-03-04 15:36:00,46.6,46.3,29.95,South,180,3.5,3.5,99,0.00,FEW,,0.02,WeatherDisplay:10.37,2014-03-04 20:36:00,
2014-03-04 15:41:00,46.6,46.3,29.95,West,270,3.5,3.5,99,0.00,FEW,,0.02,WeatherDisplay:10.37,2014-03-04 20:41:00,
2014-03-04 15:46:00,46.6,46.3,29.95,South,180,3.5,3.5,99,0.00,FEW,,0.02,WeatherDisplay:10.37,2014-03-04 20:46:00,
2014-03-04 15:51:00,46.6,46.3,29.96,SW,225,5.8,5.8,99,0.00,FEW,,0.02,WeatherDisplay:10.37,2014-03-04 20:51:00,
2014-03-04 15:56:00,46.6,46.3,29.96,WSW,248,3.7,3.7,99,0.00,FEW,,0.02,WeatherDisplay:10.37,2014-03-04 20:56:00,
2014-03-04 16:01:00,46.6,46.3,29.96,West,270,3.5,3.5,99,0.00,OVC,,0.02,WeatherDisplay:10.37,2014-03-04 21:01:00,
2014-03-04 16:06:00,46.6,46.3,29.96,West,270,3.5,3.5,99,0.00,OVC,,0.02,WeatherDisplay:10.37,2014-03-04 21:06:00,
2014-03-04 16:11:00,46.6,46.3,29.96,WSW,248,3.7,3.7,99,0.00,OVC,,0.02,WeatherDisplay:10.37,2014-03-04 21:11:00,
2014-03-04 16:16:00,46.6,46.3,29.96,SW,225,6.9,6.9,99,0.00,OVC,,0.02,WeatherDisplay:10.37,2014-03-04 21:16:00,
2014-03-04 16:21:00,46.6,46.3,29.96,SW,225,2.3,2.3,99,0.00,OVC,,0.02,WeatherDisplay:10.37,2014-03-04 21:21:00,
2014-03-04 16:26:00,46.6,46.3,29.95,WSW,248,5.8,5.8,99,0.00,OVC,,0.02,WeatherDisplay:10.37,2014-03-04 21:26:00,
2014-03-04 16:31:00,46.6,46.3,29.95,West,270,3.5,3.5,99,0.00,OVC,,0.02,WeatherDisplay:10.37,2014-03-04 21:31:00,
2014-03-04 16:36:00,46.6,46.3,29.95,West,270,1.1,1.1,99,0.00,OVC,,0.02,WeatherDisplay:10.37,2014-03-04 21:36:00,
2014-03-04 16:41:00,46.6,46.3,29.95,SW,225,4.6,4.6,99,0.00,OVC,,0.02,WeatherDisplay:10.37,2014-03-04 21:41:00,
2014-03-04 16:46:00,46.6,46.3,29.95,SW,225,3.5,3.5,99,0.00,OVC,,0.02,WeatherDisplay:10.37,2014-03-04 21:46:00,
2014-03-04 16:51:00,46.6,46.3,29.95,SW,225,4.2,4.2,99,0.00,OVC,,0.02,WeatherDisplay:10.37,2014-03-04 21:51:00,
2014-03-04 16:56:00,46.6,46.3,29.95,West,270,3.7,3.7,99,0.00,OVC,,0.02,WeatherDisplay:10.37,2014-03-04 21:56:00,
2014-03-04 17:01:00,46.6,46.3,29.95,WSW,248,5.8,5.8,99,0.00,OVC,,0.02,WeatherDisplay:10.37,2014-03-04 22:01:00,
2014-03-04 17:06:00,46.6,46.3,29.95,WSW,248,3.7,3.7,99,0.00,OVC,,0.02,WeatherDisplay:10.37,2014-03-04 22:06:00,
2014-03-04 17:11:00,46.6,46.3,29.95,West,270,4.7,4.7,99,0.00,OVC,,0.02,WeatherDisplay:10.37,2014-03-04 22:11:00,
2014-03-04 17:16:00,46.6,46.3,29.94,West,270,4.6,4.6,99,0.00,OVC,,0.02,WeatherDisplay:10.37,2014-03-04 22:16:00,
2014-03-04 17:21:00,46.6,46.3,29.94,West,270,4.6,4.6,99,0.00,OVC,,0.02,WeatherDisplay:10.37,2014-03-04 22:21:00,
2014-03-04 17:26:00,46.6,46.3,29.94,WSW,248,4.6,4.6,99,0.00,OVC,,0.02,WeatherDisplay:10.37,2014-03-04 22:26:00,
2014-03-04 17:31:00,46.6,46.3,29.94,WSW,248,4.6,4.6,99,0.00,OVC,,0.02,WeatherDisplay:10.37,2014-03-04 22:31:00,
2014-03-04 17:36:00,46.6,46.3,29.94,WSW,248,0.0,0.0,99,0.00,OVC,,0.02,WeatherDisplay:10.37,2014-03-04 22:36:00,
2014-03-04 17:41:00,46.6,46.3,29.94,WSW,248,2.3,2.3,99,0.00,OVC,,0.02,WeatherDisplay:10.37,2014-03-04 22:41:00,
2014-03-04 17:46:00,46.6,46.3,29.94,WSW,248,2.3,2.3,99,0.00,OVC,,0.02,WeatherDisplay:10.37,2014-03-04 22:46:00,
2014-03-04 17:51:00,46.6,46.3,29.94,WSW,248,2.7,2.7,99,0.00,OVC,,0.02,WeatherDisplay:10.37,2014-03-04 22:51:00,
2014-03-04 17:56:00,46.6,46.3,29.94,WSW,248,1.1,1.1,99,0.00,OVC,,0.02,WeatherDisplay:10.37,2014-03-04 22:56:00,
2014-03-04 18:01:00,46.6,46.3,29.94,WSW,248,0.0,0.0,99,0.00,OVC,,0.02,WeatherDisplay:10.37,2014-03-04 23:01:00,
2014-03-04 18:06:00,46.6,46.3,29.94,WSW,248,2.7,2.7,99,0.00,OVC,,0.02,WeatherDisplay:10.37,2014-03-04 23:06:00,
2014-03-04 18:11:00,46.6,46.3,29.94,WSW,248,2.7,2.7,99,0.00,OVC,,0.02,WeatherDisplay:10.37,2014-03-04 23:11:00,
2014-03-04 18:16:00,46.6,46.3,29.94,WSW,248,2.3,2.3,99,0.00,OVC,,0.02,WeatherDisplay:10.37,2014-03-04 23:16:00,
2014-03-04 18:21:00,46.6,46.3,29.94,WSW,248,2.3,2.3,99,0.00,OVC,,0.02,WeatherDisplay:10.37,2014-03-04 23:21:00,
2014-03-04 18:26:00,46.6,46.3,29.94,WSW,248,2.3,2.3,99,0.00,OVC,,0.02,WeatherDisplay:10.37,2014-03-04 23:26:00,
2014-03-04 18:31:00,46.6,46.3,29.95,WSW,248,0.0,0.0,99,0.00,OVC,,0.02,WeatherDisplay:10.37,2014-03-04 23:31:00,
2014-03-04 18:36:00,46.6,46.3,29.95,WSW,248,0.0,0.0,99,0.00,OVC,,0.02,WeatherDisplay:10.37,2014-03-04 23:36:00,
2014-03-04 18:41:00,46.6,46.3,29.95,WSW,248,0.0,0.0,99,0.00,OVC,,0.02,WeatherDisplay:10.37,2014-03-04 23:41:00,
2014-03-04 18:46:00,46.6,46.3,29.95,WSW,248,0.0,0.0,99,0.00,OVC,,0.02,WeatherDisplay:10.37,2014-03-04 23:46:00,
2014-03-04 18:51:00,46.6,46.3,29.96,WSW,248,3.5,3.5,99,0.00,OVC,,0.02,WeatherDisplay:10.37,2014-03-04 23:51:00,
2014-03-04 18:56:00,46.6,46.3,29.96,WSW,248,2.3,2.3,99,0.00,OVC,,0.02,WeatherDisplay:10.37,2014-03-04 23:56:00,
2014-03-04 19:01:00,46.6,46.3,29.96,WSW,248,1.1,1.1,99,0.00,OVC,,0.02,WeatherDisplay:10.37,2014-03-05 00:01:00,
2014-03-04 19:06:00,46.6,46.3,29.96,WSW,248,0.0,0.0,99,0.00,OVC,,0.02,WeatherDisplay:10.37,2014-03-05 00:06:00,
2014-03-04 19:11:00,46.6,46.3,29.96,WSW,248,2.3,2.5,99,0.00,OVC,,0.02,WeatherDisplay:10.37,2014-03-05 00:11:00,
2014-03-04 19:16:00,46.6,46.3,29.96,WSW,248,2.7,2.7,99,0.00,OVC,,0.02,WeatherDisplay:10.37,2014-03-05 00:16:00,
2014-03-04 19:21:00,46.6,46.3,29.96,WSW,248,2.3,2.3,99,0.00,OVC,,0.02,WeatherDisplay:10.37,2014-03-05 00:21:00,
2014-03-04 19:26:00,46.6,46.3,29.96,WSW,248,2.7,2.7,99,0.00,OVC,,0.02,WeatherDisplay:10.37,2014-03-05 00:26:00,
2014-03-04 19:31:00,46.6,46.3,29.96,WSW,248,0.0,0.0,99,0.00,OVC,,0.02,WeatherDisplay:10.37,2014-03-05 00:31:00,
2014-03-04 19:36:00,46.6,46.3,29.96,WSW,248,1.7,1.7,99,0.00,OVC,,0.02,WeatherDisplay:10.37,2014-03-05 00:36:00,
2014-03-04 19:41:00,46.6,46.3,29.96,WSW,248,1.7,1.7,99,0.00,OVC,,0.02,WeatherDisplay:10.37,2014-03-05 00:41:00,
2014-03-04 19:46:00,46.6,46.3,29.96,WSW,248,0.0,0.0,99,0.00,OVC,,0.02,WeatherDisplay:10.37,2014-03-05 00:46:00,
2014-03-04 19:51:00,46.6,46.3,29.96,WSW,248,0.0,0.0,99,0.00,OVC,,0.02,WeatherDisplay:10.37,2014-03-05 00:51:00,
2014-03-04 19:56:00,46.6,46.3,29.96,WSW,248,0.0,0.0,99,0.00,OVC,,0.02,WeatherDisplay:10.37,2014-03-05 00:56:00,
2014-03-04 20:01:00,46.6,46.3,29.95,WSW,248,3.5,3.5,99,0.00,OVC,,0.02,WeatherDisplay:10.37,2014-03-05 01:01:00,
2014-03-04 20:06:00,46.6,46.3,29.95,WSW,248,3.5,3.5,99,0.00,OVC,,0.02,WeatherDisplay:10.37,2014-03-05 01:06:00,
2014-03-04 20:11:00,46.6,46.3,29.95,WSW,248,2.7,2.7,99,0.00,OVC,,0.02,WeatherDisplay:10.37,2014-03-05 01:11:00,
2014-03-04 20:16:00,46.6,46.3,29.95,WSW,248,2.3,2.3,99,0.00,OVC,,0.02,WeatherDisplay:10.37,2014-03-05 01:16:00,
2014-03-04 20:21:00,46.6,46.3,29.95,WSW,248,2.3,2.3,99,0.00,OVC,,0.02,WeatherDisplay:10.37,2014-03-05 01:21:00,
2014-03-04 20:26:00,46.6,46.3,29.95,WSW,248,2.3,2.3,99,0.00,OVC,,0.02,WeatherDisplay:10.37,2014-03-05 01:26:00,
2014-03-04 20:31:00,46.6,46.3,29.95,WSW,248,2.3,2.3,99,0.00,OVC,,0.02,WeatherDisplay:10.37,2014-03-05 01:31:00,
2014-03-04 20:36:00,46.6,46.3,29.95,WSW,248,3.2,3.2,99,0.00,OVC,,0.02,WeatherDisplay:10.37,2014-03-05 01:36:00,
2014-03-04 20:41:00,46.6,46.3,29.95,WSW,248,3.5,3.5,99,0.00,OVC,,0.02,WeatherDisplay:10.37,2014-03-05 01:41:00,
2014-03-04 20:46:00,46.6,46.3,29.95,WSW,248,3.5,3.5,99,0.00,OVC,,0.02,WeatherDisplay:10.37,2014-03-05 01:46:00,
2014-03-04 20:51:00,46.6,46.3,29.95,WSW,248,2.3,2.3,99,0.00,OVC,,0.02,WeatherDisplay:10.37,2014-03-05 01:51:00,
2014-03-04 20:56:00,46.6,46.3,29.95,WSW,248,2.3,2.3,99,0.00,OVC,,0.02,WeatherDisplay:10.37,2014-03-05 01:56:00,
2014-03-04 21:01:00,46.6,46.3,29.95,WSW,248,2.3,2.3,99,0.00,BKN,,0.02,WeatherDisplay:10.37,2014-03-05 02:01:00,
2014-03-04 21:06:00,46.6,46.3,29.95,WSW,248,0.0,0.0,99,0.00,BKN,,0.02,WeatherDisplay:10.37,2014-03-05 02:06:00,
2014-03-04 21:11:00,46.6,46.3,29.95,WSW,248,0.0,0.0,99,0.00,BKN,,0.02,WeatherDisplay:10.37,2014-03-05 02:11:00,
2014-03-04 21:16:00,46.6,46.3,29.95,WSW,248,0.0,0.0,99,0.00,BKN,,0.02,WeatherDisplay:10.37,2014-03-05 02:16:00,
2014-03-04 21:21:00,46.6,46.3,29.95,WSW,248,0.0,0.0,99,0.00,BKN,,0.02,WeatherDisplay:10.37,2014-03-05 02:21:00,
2014-03-04 21:26:00,46.6,46.3,29.96,WSW,248,0.0,0.0,99,0.00,BKN,,0.02,WeatherDisplay:10.37,2014-03-05 02:26:00,
2014-03-04 21:31:00,46.6,46.3,29.96,WSW,248,0.0,0.0,99,0.00,BKN,,0.02,WeatherDisplay:10.37,2014-03-05 02:31:00,
2014-03-04 21:36:00,46.6,46.3,29.96,WSW,248,0.0,0.0,99,0.00,BKN,,0.02,WeatherDisplay:10.37,2014-03-05 02:36:00,
2014-03-04 21:41:00,46.6,46.3,29.96,WSW,248,0.0,0.0,99,0.00,BKN,,0.02,WeatherDisplay:10.37,2014-03-05 02:41:00,
2014-03-04 21:46:00,46.6,46.3,29.96,WSW,248,0.0,0.0,99,0.00,BKN,,0.02,WeatherDisplay:10.37,2014-03-05 02:46:00,
2014-03-04 21:51:00,46.6,46.3,29.96,WSW,248,2.3,2.3,99,0.00,BKN,,0.02,WeatherDisplay:10.37,2014-03-05 02:51:00,
2014-03-04 21:56:00,46.6,46.3,29.96,WSW,248,2.3,2.3,99,0.00,BKN,,0.02,WeatherDisplay:10.37,2014-03-05 02:56:00,
2014-03-04 22:01:00,46.6,46.3,29.96,WSW,248,1.1,1.1,99,0.00,BKN,,0.02,WeatherDisplay:10.37,2014-03-05 03:01:00,
2014-03-04 22:06:00,46.6,46.3,29.96,WSW,248,1.1,1.1,99,0.00,BKN,,0.02,WeatherDisplay:10.37,2014-03-05 03:06:00,
2014-03-04 22:11:00,46.6,46.3,29.96,WSW,248,0.0,0.0,99,0.00,BKN,,0.02,WeatherDisplay:10.37,2014-03-05 03:11:00,
2014-03-04 22:16:00,46.6,46.3,29.95,WSW,248,0.0,0.0,99,0.00,BKN,,0.02,WeatherDisplay:10.37,2014-03-05 03:16:00,
2014-03-04 22:21:00,46.6,46.3,29.95,WSW,248,0.0,0.0,99,0.00,BKN,,0.02,WeatherDisplay:10.37,2014-03-05 03:21:00,
2014-03-04 22:26:00,46.6,46.3,29.96,WSW,248,0.0,0.0,99,0.00,BKN,,0.02,WeatherDisplay:10.37,2014-03-05 03:26:00,
2014-03-04 22:31:00,46.6,46.3,29.96,WSW,248,0.0,0.0,99,0.00,OVC,,0.02,WeatherDisplay:10.37,2014-03-05 03:31:00,
2014-03-04 22:36:00,46.6,46.3,29.96,WSW,248,0.0,0.0,99,0.00,OVC,,0.02,WeatherDisplay:10.37,2014-03-05 03:36:00,
2014-03-04 22:41:00,46.6,46.3,29.96,WSW,248,0.0,0.0,99,0.00,OVC,,0.02,WeatherDisplay:10.37,2014-03-05 03:41:00,
2014-03-04 22:46:00,46.6,46.3,29.96,WSW,248,0.0,0.0,99,0.00,OVC,,0.02,WeatherDisplay:10.37,2014-03-05 03:46:00,
2014-03-04 22:51:00,46.6,46.3,29.96,WSW,248,0.0,0.0,99,0.00,OVC,,0.02,WeatherDisplay:10.37,2014-03-05 03:51:00,
2014-03-04 22:56:00,46.6,46.3,29.96,WSW,248,0.0,0.0,99,0.00,OVC,,0.02,WeatherDisplay:10.37,2014-03-05 03:56:00,
2014-03-04 23:01:00,46.6,46.3,29.96,WSW,248,0.0,0.0,99,0.00,OVC,,0.02,WeatherDisplay:10.37,2014-03-05 04:01:00,
2014-03-04 23:06:00,46.6,46.3,29.96,WSW,248,0.0,0.0,99,0.00,OVC,,0.02,WeatherDisplay:10.37,2014-03-05 04:06:00,
2014-03-04 23:11:00,46.6,46.3,29.96,WSW,248,0.0,0.0,99,0.00,OVC,,0.02,WeatherDisplay:10.37,2014-03-05 04:11:00,
2014-03-04 23:16:00,46.6,46.3,29.96,WSW,248,0.0,0.0,99,0.00,OVC,,0.02,WeatherDisplay:10.37,2014-03-05 04:16:00,
2014-03-04 23:21:00,46.6,46.3,29.96,WSW,248,0.0,0.0,99,0.00,OVC,,0.02,WeatherDisplay:10.37,2014-03-05 04:21:00,
2014-03-04 23:26:00,46.6,46.3,29.96,WSW,248,0.0,0.0,99,0.00,OVC,,0.02,WeatherDisplay:10.37,2014-03-05 04:26:00,
2014-03-04 23:31:00,46.6,46.3,29.96,WSW,248,0.0,0.0,99,0.00,OVC,,0.02,WeatherDisplay:10.37,2014-03-05 04:31:00,
2014-03-04 23:36:00,46.6,46.3,29.96,WSW,248,0.0,0.0,99,0.00,OVC,,0.02,WeatherDisplay:10.37,2014-03-05 04:36:00,
2014-03-04 23:41:00,46.6,46.3,29.96,WSW,248,2.3,2.3,99,0.00,OVC,,0.02,WeatherDisplay:10.37,2014-03-05 04:41:00,
2014-03-04 23:46:00,46.6,46.3,29.96,WSW,248,1.7,1.7,99,0.00,OVC,,0.02,WeatherDisplay:10.37,2014-03-05 04:46:00,
2014-03-04 23:51:00,46.6,46.3,29.96,WSW,248,2.3,2.3,99,0.00,OVC,,0.02,WeatherDisplay:10.37,2014-03-05 04:51:00,
2014-03-04 23:56:00,46.6,46.3,29.96,WSW,248,2.3,2.3,99,0.00,OVC,,0.02,WeatherDisplay:10.37,2014-03-05 04:56:00,